Theta_e
315 317 325 328 327 327 327 326 327 328 329 330 333 335 336 338 344 349 338 337 345 333 324 322 319 317 315 316 317 319 321 326 334 341 345 345 344 342 342 339 335 328 323 321 319 316 315 316 318
321 320 323 327 327 327 328 326 327 327 330 330 334 336 340 342 341 340 338 338 345 334 325 323 319 317 315 315 316 317 319 322 330 338 340 342 342 341 339 333 327 323 321 315 313 317 320 321 323
322 323 325 324 326 328 327 328 328 328 330 336 336 337 338 342 341 340 337 339 344 339 326 323 320 318 316 315 315 315 317 319 325 333 336 338 338 338 332 326 321 318 316 321 327 328 326 323 324
328 329 324 325 326 325 327 328 329 328 329 336 336 338 338 340 341 339 337 338 346 343 330 326 320 318 316 315 314 315 316 317 318 323 331 335 334 331 325 320 317 314 317 330 332 330 330 329 331
324 325 323 323 324 326 327 327 328 328 332 333 336 338 339 339 340 338 338 339 342 344 343 336 320 318 317 315 314 315 315 316 316 317 321 325 324 323 319 316 313 313 320 328 332 331 330 330 333
327 325 325 324 324 324 325 326 327 328 331 333 337 338 339 338 340 337 337 338 339 342 342 341 333 318 318 316 314 314 315 315 315 315 316 317 317 317 315 312 312 314 319 327 330 329 329 330 332
328 328 326 324 324 325 326 327 326 326 327 329 335 338 339 339 339 337 335 337 338 341 343 343 339 332 318 316 314 314 314 314 314 314 314 314 314 313 313 313 313 315 320 327 329 331 332 331 331
330 329 328 327 326 324 325 325 325 325 326 329 333 337 338 341 339 336 335 336 337 340 345 345 345 339 325 317 316 314 313 314 314 314 313 313 313 312 313 314 315 316 320 327 328 332 333 332 331
328 331 332 330 328 327 326 325 324 325 325 327 332 335 338 339 339 337 335 335 336 339 343 349 351 345 335 331 327 317 314 313 315 315 315 314 315 317 316 316 317 317 320 324 327 332 334 334 334
326 331 331 329 329 329 326 326 325 325 325 326 329 335 335 338 339 339 337 337 336 338 340 342 348 347 341 339 339 335 319 318 317 323 325 320 321 327 327 329 325 329 323 322 328 331 333 336 338
327 332 330 329 329 329 329 328 326 325 325 325 329 333 335 336 341 339 338 337 337 338 338 342 344 346 345 342 340 339 339 336 334 331 333 335 329 328 333 332 332 329 329 328 331 332 334 339 338
322 326 329 329 329 329 329 329 328 326 326 326 327 332 335 336 340 338 337 337 337 337 337 343 343 344 345 345 342 342 345 344 342 340 336 336 337 333 332 334 335 332 332 333 334 335 337 335 338
317 319 322 326 328 330 330 330 330 329 328 327 327 328 336 337 338 337 337 337 336 338 338 340 344 344 344 344 346 343 344 344 345 343 342 339 340 337 336 335 334 337 334 337 334 337 336 337 337
318 318 319 320 323 326 328 330 330 331 329 329 329 328 329 335 336 337 337 338 336 336 336 335 347 347 346 345 344 346 345 343 345 346 345 343 340 341 338 336 337 334 338 337 338 334 337 339 340
315 318 319 319 320 322 324 328 329 330 331 331 331 330 330 330 336 336 336 337 336 335 334 335 344 346 348 340 337 340 340 345 344 345 345 347 344 340 342 340 335 339 336 340 338 338 336 336 338
313 315 317 319 319 320 321 324 326 328 330 331 331 331 331 330 330 332 334 337 335 335 334 334 337 343 341 340 345 350 350 347 345 346 345 346 348 345 341 343 342 338 340 336 337 338 339 338 337
314 313 313 314 318 319 320 322 324 325 327 330 331 332 332 332 333 332 333 335 334 335 334 336 336 340 340 341 337 338 340 341 346 345 345 346 349 348 347 346 344 342 340 339 338 336 335 336 337
312 313 313 312 314 315 318 320 322 325 327 328 329 330 333 332 333 334 335 334 335 334 334 336 337 337 336 336 338 341 341 341 343 345 346 344 346 350 346 347 344 343 343 340 339 338 336 337 336
314 314 314 315 314 314 316 318 322 323 324 325 330 330 330 333 335 332 334 334 334 334 337 337 335 336 335 340 341 342 341 339 344 345 345 344 348 347 349 345 347 344 344 342 340 338 338 338 335
314 314 314 315 314 314 316 316 318 322 324 325 328 331 331 332 332 336 335 336 338 337 334 334 337 335 331 342 339 342 341 341 342 345 345 346 348 348 348 348 347 345 345 343 342 340 338 336 334
314 314 314 314 314 314 314 316 317 319 322 324 327 329 330 331 334 333 336 338 337 336 336 336 334 333 336 341 343 338 339 341 348 347 347 347 348 348 348 347 347 346 343 345 342 339 337 341 340
314 313 313 313 313 313 313 315 319 318 322 324 325 328 330 330 331 334 336 340 340 337 334 332 331 330 334 337 339 342 344 347 347 348 349 349 348 349 348 347 345 347 343 344 341 339 340 340 339
314 312 312 312 313 313 312 314 315 319 321 324 325 327 329 329 329 331 334 336 333 332 331 330 331 336 335 339 343 339 347 346 348 348 350 350 348 349 348 344 347 345 342 345 342 343 340 339 339
313 312 311 311 311 312 312 313 314 317 322 324 325 325 327 329 328 328 331 331 331 331 332 331 329 339 335 339 340 341 345 345 349 348 353 351 349 347 344 344 346 345 343 345 343 341 339 339 337
313 312 313 311 312 315 313 312 314 316 318 322 325 326 327 327 328 329 330 330 332 331 329 330 335 338 340 341 342 344 349 344 354 353 352 350 347 346 347 345 345 345 343 343 341 340 339 338 338
314 313 314 316 317 320 318 319 315 317 317 321 324 325 327 327 328 328 329 330 328 327 328 327 328 340 339 338 346 349 352 349 357 352 352 349 346 345 345 345 346 346 343 341 340 338 337 337 336
315 313 313 313 314 318 318 319 317 318 319 320 323 323 324 325 326 326 327 331 333 331 334 333 330 334 338 348 351 351 351 353 354 350 352 350 348 349 346 346 344 341 341 340 338 336 335 336 335
314 314 316 317 319 319 317 317 318 320 321 322 323 325 326 326 327 329 331 336 339 338 337 334 330 338 349 350 352 352 354 352 352 353 350 346 347 347 345 344 341 339 337 337 336 334 336 334 334
314 313 313 313 314 315 316 316 319 320 322 323 322 324 326 324 324 326 332 338 340 340 340 336 333 348 351 352 354 354 354 352 350 348 345 344 343 342 341 340 337 337 336 336 334 335 334 333 334
314 316 317 319 316 318 320 321 318 322 323 323 323 324 324 323 323 323 341 342 340 339 339 340 345 350 352 353 353 352 350 349 347 345 344 341 341 338 338 338 333 335 336 334 334 335 334 332 333
Wind_Speed
12 9 12 17 6 7 15 19 20 20 9 3 5 5 3 12 15 10 29 21 32 31 31 27 24 22 21 20 19 17 15 14 14 14 13 12 12 10 10 8 7 6 5 5 4 4 3 2 1
9 10 14 7 8 13 14 19 22 18 5 4 2 1 8 9 19 16 19 32 27 30 31 28 25 24 22 21 20 18 17 16 16 16 15 14 13 13 11 10 9 8 7 6 6 5 4 3 2
11 14 8 6 13 16 16 20 15 13 6 4 3 9 8 2 17 21 22 32 27 27 29 28 26 25 24 22 20 20 19 18 18 17 16 16 15 14 13 12 11 10 9 8 8 7 6 4 3
9 10 6 10 19 20 25 23 21 9 14 8 8 7 6 4 9 20 27 31 25 22 27 27 27 27 24 23 22 21 21 20 20 19 18 17 17 16 15 14 13 12 11 10 9 8 6 5 4
16 8 11 14 18 21 22 21 18 14 6 8 15 14 9 10 18 31 32 31 27 25 21 23 28 28 25 24 24 23 22 22 22 21 20 20 19 19 18 16 15 15 14 12 11 9 8 7 7
5 6 13 15 21 21 19 20 21 10 8 12 8 13 12 24 26 26 29 29 27 28 24 21 25 28 27 26 25 24 24 23 23 22 23 22 22 21 20 18 17 17 16 14 13 12 11 10 9
13 10 16 19 20 20 18 10 18 14 13 17 15 11 2 16 17 28 27 26 27 28 25 20 23 27 28 28 26 26 25 24 24 23 24 24 24 22 21 20 19 18 18 17 16 15 14 12 11
12 13 20 20 16 20 23 21 21 22 17 17 19 8 12 7 30 31 27 27 26 27 23 19 17 23 29 30 28 27 26 25 25 25 25 25 23 23 23 22 22 21 20 19 18 18 16 13 13
16 13 16 23 20 18 18 18 22 21 22 17 18 10 8 10 11 28 26 25 26 27 25 19 18 19 24 23 23 28 27 27 26 26 26 26 26 25 25 26 24 24 22 21 21 20 17 15 15
19 17 24 21 19 16 16 13 15 17 20 23 19 4 6 3 14 14 16 18 23 25 27 24 21 19 20 20 20 20 27 28 29 28 27 30 28 25 25 25 24 23 23 23 22 21 19 18 16
21 24 23 23 21 19 21 19 13 18 21 22 12 14 7 7 11 14 21 23 22 24 29 33 31 26 22 21 24 24 22 24 26 27 27 27 28 27 26 25 26 25 25 24 23 22 22 18 17
25 29 27 28 24 22 23 20 17 19 22 25 17 21 9 8 7 13 10 12 10 22 24 33 34 32 28 23 25 21 21 24 25 27 29 29 28 27 27 27 24 29 26 27 23 24 22 21 22
28 27 28 28 26 27 24 25 22 22 22 25 25 19 19 15 12 13 15 15 21 14 30 28 40 31 28 26 19 23 24 24 26 26 30 33 29 29 27 26 27 26 29 26 26 26 26 27 22
21 27 27 28 28 27 29 27 21 26 21 23 24 23 14 14 12 13 16 15 5 6 5 8 28 23 24 23 24 20 22 23 24 27 29 34 34 28 29 29 25 29 28 27 29 27 28 30 30
21 26 25 27 27 29 26 27 31 23 22 22 23 23 23 16 21 15 20 17 12 11 9 5 11 17 17 15 17 21 23 21 26 22 25 31 35 34 27 27 33 25 29 22 26 28 27 25 24
22 22 22 23 28 27 22 28 29 23 22 22 23 22 21 22 17 18 23 20 22 16 12 14 12 18 19 17 17 20 20 21 24 24 22 27 32 30 31 26 26 29 24 27 21 21 20 22 22
17 21 26 29 24 26 27 32 27 26 24 22 19 20 21 21 18 20 26 24 20 20 18 11 16 13 18 20 19 20 22 23 22 22 25 24 28 32 27 26 25 24 27 23 21 22 20 18 17
19 21 21 26 24 26 27 31 30 24 22 23 23 25 22 23 23 22 29 29 23 23 19 18 15 15 14 14 17 21 20 22 22 22 22 23 27 27 32 24 25 24 22 22 21 19 21 17 17
22 23 28 27 27 27 23 28 27 26 25 26 21 22 24 23 20 29 27 33 32 28 27 24 21 20 16 17 20 21 20 20 20 20 21 21 23 26 24 30 21 24 21 20 19 19 17 16 14
23 25 28 27 26 22 26 31 30 25 25 28 25 21 24 23 21 16 21 20 22 22 23 22 23 22 22 23 25 19 14 20 23 20 19 20 21 22 23 23 21 24 19 19 18 19 13 14 16
25 22 24 27 24 22 26 30 30 30 25 25 26 26 23 25 19 21 13 12 19 22 24 25 24 23 24 27 21 19 18 15 12 17 17 19 20 20 23 24 20 23 24 19 19 15 18 13 13
21 21 25 26 23 17 21 21 23 23 26 27 24 23 23 23 22 17 13 9 13 18 20 22 25 27 30 31 27 22 18 15 18 18 18 19 18 20 24 22 24 21 22 17 22 20 19 15 8
24 21 21 23 22 23 25 16 19 24 27 25 23 21 22 22 24 21 14 12 16 18 23 26 28 32 35 33 30 27 22 20 17 16 20 21 20 21 21 19 20 21 19 14 18 17 16 11 11
21 16 21 21 19 20 27 22 23 22 25 25 25 27 20 20 21 23 20 17 18 25 25 30 36 35 40 34 35 29 26 23 19 20 22 19 20 21 19 23 19 20 19 13 13 12 12 12 8
14 15 14 16 14 19 25 25 24 20 29 30 24 21 23 21 22 20 20 15 17 19 21 22 25 32 34 33 27 31 24 29 14 28 22 20 22 21 23 24 22 19 16 12 11 11 10 10 9
20 19 8 9 15 17 22 14 21 24 34 28 23 10 7 24 20 14 8 6 9 16 22 26 23 24 26 24 24 23 24 22 19 26 22 23 25 27 25 24 22 17 15 9 9 8 9 10 9
18 16 18 17 19 14 10 21 23 22 29 22 22 7 3 4 3 5 7 6 7 11 12 21 21 22 23 23 22 22 24 22 22 23 21 26 25 25 27 21 18 13 12 11 8 8 11 13 11
19 19 16 6 5 8 14 16 11 21 23 21 22 19 8 6 4 6 8 6 5 10 13 13 23 24 22 20 21 22 22 22 21 21 23 20 23 24 22 18 16 13 11 11 10 8 10 8 7
14 15 16 11 10 13 10 11 12 21 18 17 25 13 11 7 8 8 8 3 11 14 22 15 20 22 21 21 22 23 21 23 24 22 19 20 21 23 20 17 14 13 12 11 10 3 11 9 8
17 21 1 4 14 11 7 15 11 14 21 27 26 17 14 6 3 6 8 6 10 20 17 17 18 21 22 23 22 22 24 24 22 20 19 19 17 18 17 15 13 13 14 12 9 8 10 10 8
Wind_Direction
250 257 275 265 242 233 252 244 261 271 254 348 61 10 289 306 27 99 133 146 140 150 154 162 165 171 174 174 178 181 179 183 184 187 189 186 185 184 183 184 187 193 202 201 204 216 218 207 242
253 244 260 273 234 244 244 234 240 247 270 201 98 214 274 96 107 139 146 139 151 153 159 166 171 175 178 178 181 185 186 188 190 193 195 196 196 192 193 197 199 202 206 208 202 200 204 209 233
227 245 259 233 233 246 259 244 222 223 212 133 138 211 235 173 117 139 132 131 153 156 165 172 174 178 180 183 187 191 193 196 196 199 202 201 202 202 203 205 205 205 207 201 195 200 202 209 218
236 225 249 257 252 242 249 281 299 177 192 150 242 183 236 134 113 135 138 140 147 156 168 180 179 182 184 188 193 198 200 201 203 201 208 209 210 210 213 213 207 208 206 199 200 205 210 215 227
256 268 236 246 245 259 279 283 288 288 170 209 225 246 177 120 103 139 142 147 151 155 162 185 183 185 189 194 198 202 206 207 209 208 210 214 217 218 216 216 209 207 207 204 205 210 214 223 230
223 240 256 245 245 255 262 270 283 267 277 276 241 211 241 151 139 150 153 154 157 156 169 185 187 192 193 198 202 206 210 212 213 213 215 216 220 221 219 217 213 211 209 207 209 215 219 224 228
240 237 251 256 268 277 250 283 274 269 248 250 263 248 249 129 169 155 159 155 159 154 170 182 188 196 201 200 206 211 214 216 218 217 220 220 220 221 222 220 217 217 213 210 213 219 221 225 232
242 250 257 264 270 271 286 314 313 318 246 239 246 257 228 223 172 155 167 164 165 158 169 178 187 194 202 205 206 213 219 222 224 223 224 224 224 223 225 224 221 221 218 215 218 222 224 229 233
233 244 251 251 250 259 276 281 298 300 308 253 259 224 65 52 123 158 173 173 169 163 164 169 175 193 197 204 216 216 220 225 228 229 228 227 225 225 225 226 223 223 220 221 223 225 225 231 238
232 239 243 253 273 284 269 261 285 287 289 288 243 179 70 253 181 200 185 174 178 166 170 177 180 190 187 194 208 225 226 228 228 226 227 226 225 221 229 227 223 226 229 227 229 229 229 232 235
232 244 245 250 254 268 284 288 258 271 265 267 265 277 168 238 224 209 195 191 183 183 183 178 178 186 184 187 202 217 220 228 230 227 224 228 223 222 222 222 226 225 228 232 232 232 229 228 236
252 247 246 254 261 268 271 281 266 272 276 284 262 234 178 204 273 226 216 193 192 195 203 176 176 179 181 189 194 210 208 211 218 226 226 216 221 220 220 218 217 219 221 228 220 230 226 228 230
248 252 260 259 254 259 260 257 266 254 260 275 282 270 191 186 205 245 246 194 220 229 146 214 194 181 189 192 193 205 210 214 219 221 224 211 211 215 220 220 215 220 218 217 223 221 222 225 226
269 261 258 255 259 254 255 257 254 252 252 264 273 280 263 192 231 221 230 230 255 296 335 161 172 182 187 201 201 207 221 220 223 217 222 218 215 217 216 220 219 218 209 209 217 223 224 221 221
273 274 275 263 256 255 253 252 248 256 244 246 255 266 274 259 198 209 228 235 237 246 266 292 149 178 193 199 212 224 227 228 234 230 222 229 216 211 215 217 220 219 225 219 214 217 221 227 230
279 275 266 256 247 255 260 255 244 251 251 250 251 260 263 263 253 231 230 220 210 216 222 240 208 192 205 209 220 229 238 235 229 230 229 224 221 208 212 216 220 217 225 233 234 226 217 221 228
249 257 261 268 257 251 237 253 252 240 239 249 249 252 254 260 249 232 249 240 214 201 203 209 214 198 192 202 226 241 239 238 238 229 225 224 217 213 209 215 219 220 221 226 228 230 233 233 235
268 259 256 256 260 269 265 240 249 247 246 230 241 252 252 240 252 246 223 228 221 185 191 207 217 216 218 229 234 235 240 243 235 231 230 221 217 207 205 212 219 225 221 219 223 225 220 235 235
282 278 274 275 286 293 279 263 265 239 232 248 224 235 247 255 235 233 238 221 225 187 173 192 211 229 246 243 228 236 240 236 232 227 230 222 210 199 202 211 219 219 217 217 224 221 216 229 230
270 275 275 283 287 289 287 280 278 267 245 230 233 227 247 246 245 242 220 227 177 178 184 195 208 224 250 244 243 231 234 233 223 219 220 213 198 196 202 203 220 208 212 215 218 209 207 232 237
273 265 267 274 281 286 281 276 269 270 273 259 227 218 224 247 252 233 230 219 181 180 187 203 216 226 240 233 231 241 247 252 205 198 203 194 196 198 204 206 218 202 209 212 205 200 207 227 208
276 274 274 278 280 271 271 275 261 262 261 263 251 223 213 228 244 246 216 217 190 180 197 217 231 233 233 231 226 221 215 212 221 196 188 190 196 204 202 204 214 206 202 207 198 207 212 222 203
277 291 285 288 282 279 260 262 264 268 253 252 255 255 212 213 242 244 238 217 217 220 217 220 226 225 222 220 216 218 215 212 208 191 189 181 194 206 189 209 208 197 196 212 190 193 204 213 209
276 289 282 282 280 265 264 255 258 253 262 259 229 244 244 211 222 244 244 224 234 238 219 218 224 215 216 213 215 212 217 207 194 187 161 167 183 199 206 199 202 193 198 198 181 188 192 201 213
267 262 272 267 261 260 257 248 256 255 257 265 267 240 230 227 224 225 224 231 228 226 231 227 212 203 204 202 205 213 219 205 205 161 161 165 174 189 196 194 195 192 198 188 177 188 200 209 210
301 298 276 271 293 302 317 310 253 239 254 265 298 257 270 210 212 213 219 233 239 231 226 222 226 184 189 197 205 206 208 196 177 159 167 163 179 188 192 194 192 191 186 170 188 195 211 206 213
290 287 257 251 273 281 261 282 279 273 265 250 248 239 72 37 112 181 221 232 248 247 234 203 197 180 189 193 191 195 193 183 161 167 178 178 181 180 180 179 179 181 178 183 192 201 207 196 191
275 282 273 257 276 254 278 249 252 271 268 231 249 261 165 134 204 213 227 241 293 283 268 204 185 181 176 176 182 189 175 170 169 173 164 154 148 157 166 174 178 182 191 189 181 198 184 186 186
272 286 248 248 245 277 288 267 6 304 288 270 228 222 143 174 209 231 203 189 244 258 252 177 182 162 160 168 174 165 170 142 139 148 150 144 144 154 165 174 181 179 172 180 195 201 175 182 192
4 300 22 214 267 289 255 279 272 335 334 288 216 171 144 141 330 262 105 229 234 226 198 171 168 154 160 163 164 160 138 134 141 144 142 139 145 153 172 173 182 178 184 176 188 192 181 187 183